Weather reports worldwide

Advertisment
Durham, United Kingdom (99049): temperature & dewpoint: 17.09.2020 08:00:00 - 23.09.2020 08:00:00 (BST)Durham, United Kingdom (99049): temperature -20cm & temperature -100cm: 17.09.2020 08:00:00 - 23.09.2020 08:00:00 (BST)Durham, United Kingdom (99049): precipitation: 17.09.2020 08:00:00 - 23.09.2020 08:00:00 (BST)
Date & Time tt [°C] td [°C] tt -20cm [°C] tt -100cm [°C] rr [mm]
23.09.2020 08:00:00 - - - - -
23.09.2020 07:00:00 11,1 10,7 - - 1,2
23.09.2020 06:00:00 11,3 10,7 - - 0,0
23.09.2020 05:00:00 11,5 10,7 - - 1,2
23.09.2020 04:00:00 12,4 11,3 - - -
23.09.2020 03:00:00 13,1 11,8 - - 0,2
23.09.2020 02:00:00 14,3 12,1 - - 0,0
23.09.2020 01:00:00 14,3 11,8 - - 0,0
23.09.2020 00:00:00 14,4 11,6 - - 0,0
22.09.2020 23:00:00 15,0 11,8 - - 0,0
22.09.2020 22:00:00 15,2 12,2 - - 0,0
22.09.2020 21:00:00 15,1 12,2 - - 0,0
22.09.2020 20:00:00 15,2 12,0 - - 0,0
22.09.2020 19:00:00 15,5 11,8 - - 0,0
22.09.2020 18:00:00 15,6 11,8 - - -
22.09.2020 17:00:00 16,1 11,8 - - 0,0
22.09.2020 16:00:00 15,6 12,4 - - -
22.09.2020 15:00:00 16,5 12,8 - - 0,0
22.09.2020 14:00:00 19,1 12,8 - - 0,0
22.09.2020 13:00:00 19,4 13,1 - - 0,0
22.09.2020 12:00:00 19,2 12,7 - - 0,0
22.09.2020 11:00:00 17,7 13,1 - - 0,0
22.09.2020 10:00:00 15,0 12,3 15,5 14,9 0,0
22.09.2020 09:00:00 12,0 11,3 - - 0,0
22.09.2020 08:00:00 11,0 10,8 - - 0,0
22.09.2020 07:00:00 10,6 10,4 - - 0,0
22.09.2020 06:00:00 9,2 9,1 - - 0,0
22.09.2020 05:00:00 8,6 8,4 - - 0,0
22.09.2020 04:00:00 8,6 8,2 - - 0,0
22.09.2020 03:00:00 9,3 8,9 - - 0,0
22.09.2020 02:00:00 10,0 9,6 - - 0,0
22.09.2020 01:00:00 10,4 9,8 - - 0,0
22.09.2020 00:00:00 10,9 10,1 - - 0,0
21.09.2020 23:00:00 11,1 10,1 - - 0,0
21.09.2020 22:00:00 12,0 10,3 - - 0,0
21.09.2020 21:00:00 13,1 11,0 - - 0,0
21.09.2020 20:00:00 15,0 11,5 - - 0,0
21.09.2020 19:00:00 16,5 11,8 - - 0,0
21.09.2020 18:00:00 18,2 12,1 - - 0,0
21.09.2020 17:00:00 19,7 11,9 - - 0,0
21.09.2020 16:00:00 21,7 12,1 - - 0,0
21.09.2020 15:00:00 21,2 12,3 - - 0,0
21.09.2020 14:00:00 19,6 11,7 - - 0,0
21.09.2020 13:00:00 19,0 12,0 - - 0,0
21.09.2020 12:00:00 17,5 11,3 - - -
21.09.2020 11:00:00 14,8 10,0 - - 0,0
21.09.2020 10:00:00 11,7 8,9 - - 0,0
21.09.2020 09:00:00 8,6 6,8 - - 0,0
21.09.2020 08:00:00 6,7 5,8 - - 0,0
21.09.2020 07:00:00 6,1 5,5 - - 0,0
21.09.2020 06:00:00 7,2 6,3 - - 0,0
21.09.2020 05:00:00 8,3 6,9 - - 0,0
21.09.2020 04:00:00 9,7 7,5 - - 0,0
21.09.2020 03:00:00 10,3 8,0 - - 0,0
21.09.2020 02:00:00 10,9 8,5 - - 0,0
21.09.2020 01:00:00 11,5 8,9 - - 0,0
21.09.2020 00:00:00 11,8 9,1 - - 0,0
20.09.2020 23:00:00 11,4 9,6 - - 0,0
20.09.2020 22:00:00 12,0 10,0 - - 0,0
20.09.2020 21:00:00 11,9 10,2 - - 0,0
20.09.2020 20:00:00 12,0 10,2 - - 0,0
20.09.2020 19:00:00 12,5 10,5 - - 0,0
20.09.2020 18:00:00 13,3 10,8 - - 0,0
20.09.2020 17:00:00 13,5 10,7 - - 0,0
20.09.2020 16:00:00 14,3 11,7 - - 0,0
20.09.2020 15:00:00 14,6 11,8 - - -
20.09.2020 14:00:00 15,0 11,7 - - 0,0
20.09.2020 13:00:00 14,4 11,8 - - 0,0
20.09.2020 12:00:00 13,9 12,7 - - 0,0
20.09.2020 11:00:00 13,2 12,6 - - 0,0
20.09.2020 10:00:00 12,8 12,6 - - -
20.09.2020 09:00:00 12,4 12,2 - - 0,2
20.09.2020 08:00:00 12,0 11,8 - - 0,2
20.09.2020 07:00:00 11,5 11,2 - - 0,0
20.09.2020 06:00:00 11,7 11,4 - - 0,0
20.09.2020 05:00:00 11,7 11,4 - - 0,0
20.09.2020 04:00:00 12,0 11,6 - - 0,0
20.09.2020 03:00:00 12,4 11,9 - - 0,4
20.09.2020 02:00:00 12,6 12,0 - - 0,0
20.09.2020 01:00:00 12,6 11,8 - - 0,0
20.09.2020 00:00:00 12,5 11,7 - - 0,0
19.09.2020 23:00:00 12,5 11,5 - - -
19.09.2020 22:00:00 12,4 11,2 - - 0,0
19.09.2020 21:00:00 12,3 10,6 - - 0,0
19.09.2020 20:00:00 12,7 10,6 - - 0,0
19.09.2020 19:00:00 13,2 10,2 - - 0,0
19.09.2020 18:00:00 14,0 10,5 - - 0,0
19.09.2020 17:00:00 14,6 10,7 - - 0,0
19.09.2020 16:00:00 16,0 10,6 - - 0,0
19.09.2020 15:00:00 17,2 11,5 - - 0,0
19.09.2020 14:00:00 16,2 9,2 - - 0,0
19.09.2020 13:00:00 17,2 10,4 - - 0,0
19.09.2020 12:00:00 15,4 10,1 - - 0,0
19.09.2020 11:00:00 14,8 10,2 - - 0,0
19.09.2020 10:00:00 13,2 9,0 15,7 14,9 0,0
19.09.2020 09:00:00 12,4 9,4 - - 0,0
19.09.2020 08:00:00 11,0 8,5 - - 0,0
19.09.2020 07:00:00 10,6 8,4 - - 0,0
19.09.2020 06:00:00 10,7 8,6 - - 0,0
19.09.2020 05:00:00 10,8 8,8 - - 0,0
19.09.2020 04:00:00 10,9 8,3 - - 0,0
19.09.2020 03:00:00 11,1 9,1 - - 0,0
19.09.2020 02:00:00 11,2 8,9 - - 0,0
19.09.2020 01:00:00 11,5 8,9 - - 0,0
19.09.2020 00:00:00 11,7 8,7 - - 0,0
18.09.2020 23:00:00 12,1 8,9 - - 0,0
18.09.2020 22:00:00 12,0 9,9 - - -
18.09.2020 21:00:00 11,4 10,0 - - 0,0
18.09.2020 20:00:00 11,1 8,9 - - 0,0
18.09.2020 19:00:00 12,6 9,0 - - 0,0
18.09.2020 18:00:00 14,0 9,1 - - 0,0
18.09.2020 17:00:00 14,5 9,2 - - 0,0
18.09.2020 16:00:00 15,9 9,0 - - 0,0
18.09.2020 15:00:00 15,1 9,2 - - 0,0
18.09.2020 14:00:00 17,1 10,0 - - 0,0
18.09.2020 13:00:00 16,1 9,5 - - 0,0
18.09.2020 12:00:00 15,3 11,1 - - 0,0
18.09.2020 11:00:00 14,0 11,4 - - 0,0
18.09.2020 10:00:00 9,9 9,9 15,7 14,9 0,0
18.09.2020 09:00:00 6,6 6,6 - - 0,0
18.09.2020 08:00:00 5,9 5,8 - - 0,0
18.09.2020 07:00:00 6,5 6,4 - - 0,0
18.09.2020 06:00:00 6,9 6,7 - - 0,0
18.09.2020 05:00:00 7,8 7,6 - - 0,2
18.09.2020 04:00:00 8,4 8,3 - - 0,0
18.09.2020 03:00:00 6,8 6,4 - - -
18.09.2020 02:00:00 7,9 7,5 - - 0,0
18.09.2020 01:00:00 8,5 7,9 - - 0,0
18.09.2020 00:00:00 9,3 8,6 - - 0,0
17.09.2020 23:00:00 10,6 9,5 - - 0,0
17.09.2020 22:00:00 11,0 10,0 - - 0,0
17.09.2020 21:00:00 10,7 10,0 - - 0,0
17.09.2020 20:00:00 11,0 9,4 - - 0,0
17.09.2020 19:00:00 12,7 9,9 - - 0,0
17.09.2020 18:00:00 14,7 10,0 - - -
17.09.2020 17:00:00 16,5 10,6 - - -
17.09.2020 16:00:00 18,2 10,4 - - 0,0
17.09.2020 15:00:00 18,0 8,6 - - 0,0
17.09.2020 14:00:00 17,5 9,3 - - 0,0
17.09.2020 13:00:00 17,3 9,7 - - 0,0
17.09.2020 12:00:00 15,3 9,1 - - 0,0
17.09.2020 11:00:00 14,7 9,7 - - 0,0
17.09.2020 10:00:00 13,1 9,3 15,7 14,7 0,0
17.09.2020 09:00:00 10,3 8,7 - - 0,0
17.09.2020 08:00:00 8,1 7,6 - - 0,0

tt = temperature
td = dewpoint
tt -20cm = temperature -20cm
tt -100cm = temperature -100cm
rr = precipitation

Next stations